Kalispell, MT

12:49 AM MDT on June 28, 2017 (GMT -0600)
Glacier Park International

Weather History for KGPI - October, 2010

Change the Weather History Date:

Wednesday, October 27, 2010

  Actual Average Record
Temperature  
Mean Temperature 36 °F 38 °F  
Max Temperature 47 °F 49 °F 69 °F (1983)
Min Temperature 24 °F 27 °F 13 °F (2002)
Degree Days  
Heating Degree Days 29 27  
Month to date heating degree days 528 598  
Since 1 July heating degree days 1048 1098  
Cooling Degree Days 0 0  
Month to date cooling degree days 0 0  
Year to date cooling degree days 84 147  
Moisture  
Dew Point 32 °F    
Average Humidity 77    
Maximum Humidity 100    
Minimum Humidity 53    
Precipitation  
Precipitation 0.00 in 0.04 in 0.42 in (1929)
Month to date precipitation 0.33 0.85  
Year to date precipitation 15.66 13.84  
Snow  
Snow 0.00 in - - ()
Month to date snowfall 0.0  
Year to date snowfall 17.9  
Since 1 July snowfall 0.0  
Snow Depth 0.00 in    
Sea Level Pressure  
Sea Level Pressure 30.22 in    
Wind  
Wind Speed 4 mph (South)    
Max Wind Speed 10 mph    
Max Gust Speed 15 mph    
Visibility 10 miles    
Events      
T = Trace of Precipitation, MM = Missing Value Source: NWS Daily Summary

Daily Weather History Graph

Daily Weather History Graph

Search for Another Location

Airport or City:

Trip Planner

Search our weather history database for the weather conditions in past years. The results will help you decide how hot, cold, wet, or windy it might be!

Date:

Astronomy

Oct. 27, 2010 Rise Set
Actual Time 8:14 AM MDT 6:25 PM MDT
Civil Twilight 7:42 AM MDT 6:58 PM MDT
Nautical Twilight 7:06 AM MDT 7:34 PM MDT
Astronomical Twilight 6:29 AM MDT 8:10 PM MDT
Moon 9:36 PM MDT (10/27) 1:10 PM MDT (10/27)
Length of Visible Light 11h 15m
Length of Day
10h 10m
Waning Gibbous, 79% of the Moon is Illuminated
Oct 27
Waning Gibbous
Oct 30
Last Quarter
Nov 5
New
Nov 13
First Quarter
Nov 21
Full

Hourly Weather History & Observations

Time (MDT) Temp. Windchill Dew Point Humidity Pressure Visibility Wind Dir Wind Speed Gust Speed Precip Events Conditions
12:55 AM 37.9 °F 31.5 °F 33.1 °F 83% 30.04 in 10.0 mi SSE 9.2 mph - N/A   Overcast
1:55 AM 37.9 °F 31.5 °F 33.1 °F 83% 30.06 in 10.0 mi South 9.2 mph - N/A   Overcast
2:55 AM 37.9 °F 33.5 °F 33.1 °F 83% 30.08 in 10.0 mi South 5.8 mph - N/A   Overcast
3:55 AM 37.9 °F 32.7 °F 33.1 °F 83% 30.10 in 10.0 mi SSE 6.9 mph - N/A   Overcast
4:55 AM 37.0 °F 34.5 °F 34.0 °F 89% 30.12 in 10.0 mi South 3.5 mph - N/A   Overcast
5:55 AM 37.9 °F 34.4 °F 34.0 °F 86% 30.14 in 10.0 mi SSW 4.6 mph - N/A   Overcast
6:55 AM 36.0 °F 33.3 °F 33.1 °F 89% 30.17 in 10.0 mi WSW 3.5 mph - N/A   Overcast
7:55 AM 35.1 °F - 33.1 °F 92% 30.19 in 10.0 mi Calm Calm - N/A   Overcast
8:55 AM 36.0 °F - 33.1 °F 89% 30.21 in 10.0 mi Calm Calm - N/A   Overcast
9:55 AM 37.0 °F - 34.0 °F 89% 30.24 in 10.0 mi Calm Calm - N/A   Overcast
10:55 AM 39.9 °F - 35.1 °F 83% 30.25 in 10.0 mi Calm Calm - N/A   Overcast
11:55 AM 43.0 °F 41.3 °F 35.1 °F 74% 30.26 in 10.0 mi WSW 3.5 mph - N/A   Overcast
12:55 PM 45.0 °F 41.8 °F 33.1 °F 63% 30.26 in 10.0 mi South 5.8 mph - N/A   Overcast
1:55 PM 46.0 °F 44.8 °F 32.0 °F 58% 30.26 in 10.0 mi South 3.5 mph - N/A   Overcast
2:55 PM 46.0 °F 42.5 °F 30.9 °F 56% 30.27 in 10.0 mi SSE 6.9 mph - N/A   Overcast
3:55 PM 46.0 °F 41.9 °F 32.0 °F 58% 30.26 in 10.0 mi SE 8.1 mph - N/A   Overcast
4:55 PM 45.0 °F 40.6 °F 34.0 °F 65% 30.26 in 10.0 mi SE 8.1 mph - N/A   Overcast
5:55 PM 44.1 °F 40.1 °F 34.0 °F 68% 30.27 in 10.0 mi South 6.9 mph - N/A   Overcast
6:55 PM 41.0 °F 38.0 °F 33.1 °F 73% 30.28 in 10.0 mi SSE 4.6 mph - N/A   Overcast
7:55 PM 37.0 °F 32.4 °F 30.9 °F 79% 30.30 in 10.0 mi South 5.8 mph - N/A   Clear
8:55 PM 33.1 °F 28.7 °F 30.0 °F 89% 30.31 in 10.0 mi West 4.6 mph - N/A   Clear
9:55 PM 28.9 °F 25.2 °F 27.0 °F 92% 30.33 in 10.0 mi WNW 3.5 mph - N/A   Clear
10:55 PM 27.0 °F 20.5 °F 25.0 °F 92% 30.31 in 5.0 mi NNE 5.8 mph - N/A   Clear
11:55 PM 27.0 °F - 26.1 °F 96% 30.31 in 10.0 mi Calm Calm - N/A   Clear